Time,TemperatureF,DewpointF,PressureIn,WindDirection,WindDirectionDegrees,WindSpeedMPH,WindSpeedGustMPH,Humidity,HourlyPrecipIn,Conditions,Clouds,dailyrainin,SolarRadiationWatts/m^2,SoftwareType,DateUTC
2013-02-11 00:02:00,61.0,59.0,-100.00,WNW,285,3.0,5.0,94,0.00,,,2.04,0.000000,,2013-02-11 06:02:00,
2013-02-11 00:11:00,61.0,59.0,-100.00,WNW,285,3.0,5.0,94,0.00,,,2.04,0.000000,,2013-02-11 06:11:00,
2013-02-11 00:21:00,61.0,59.0,-100.00,WNW,285,3.0,5.0,94,0.00,,,2.04,0.000000,,2013-02-11 06:21:00,
2013-02-11 00:32:00,60.0,58.0,-100.00,East,86,2.0,3.0,94,0.00,,,2.04,0.000000,,2013-02-11 06:32:00,
2013-02-11 00:52:00,60.0,58.0,-100.00,East,86,2.0,3.0,94,0.00,,,2.04,0.000000,,2013-02-11 06:52:00,
2013-02-11 01:01:00,60.0,58.0,-100.00,East,86,2.0,3.0,94,0.00,,,2.04,0.000000,,2013-02-11 07:01:00,
2013-02-11 01:11:00,60.0,58.0,-100.00,East,86,2.0,3.0,94,0.00,,,2.04,0.000000,,2013-02-11 07:11:00,
2013-02-11 01:21:00,60.0,58.0,-100.00,East,86,2.0,3.0,94,0.00,,,2.04,0.000000,,2013-02-11 07:21:00,
2013-02-11 01:52:00,60.0,58.0,-100.00,WNW,301,2.0,4.0,94,0.00,,,2.04,0.000000,,2013-02-11 07:52:00,
2013-02-11 02:01:00,60.0,58.0,-100.00,WNW,301,2.0,4.0,94,0.00,,,2.04,0.000000,,2013-02-11 08:01:00,
2013-02-11 02:11:00,60.0,58.0,-100.00,WNW,301,2.0,4.0,94,0.00,,,2.04,0.000000,,2013-02-11 08:11:00,
2013-02-11 02:21:00,60.0,58.0,-100.00,WNW,301,2.0,4.0,94,0.00,,,2.04,0.000000,,2013-02-11 08:21:00,
2013-02-11 02:31:00,60.0,58.0,-100.00,WNW,301,2.0,4.0,94,0.00,,,2.04,0.000000,,2013-02-11 08:31:00,
2013-02-11 02:32:00,58.0,55.0,-100.00,North,3,2.0,6.0,91,0.02,,,2.06,0.000000,,2013-02-11 08:32:00,
2013-02-11 02:52:00,58.0,55.0,-100.00,North,3,2.0,6.0,91,0.02,,,2.06,0.000000,,2013-02-11 08:52:00,
2013-02-11 03:01:00,58.0,55.0,-100.00,North,3,2.0,6.0,91,0.02,,,2.06,0.000000,,2013-02-11 09:01:00,
2013-02-11 03:12:00,58.0,55.0,-100.00,North,3,2.0,6.0,91,0.02,,,2.06,0.000000,,2013-02-11 09:12:00,
2013-02-11 03:21:00,58.0,55.0,-100.00,North,3,2.0,6.0,91,0.02,,,2.06,0.000000,,2013-02-11 09:21:00,
2013-02-11 03:52:00,57.0,53.0,-100.00,NE,40,1.0,5.0,88,0.01,,,2.07,0.000000,,2013-02-11 09:52:00,
2013-02-11 04:01:00,57.0,53.0,-100.00,NE,40,1.0,5.0,88,0.01,,,2.07,0.000000,,2013-02-11 10:01:00,
2013-02-11 04:11:00,57.0,53.0,-100.00,NE,40,1.0,5.0,88,0.01,,,2.07,0.000000,,2013-02-11 10:11:00,
2013-02-11 04:21:00,57.0,53.0,-100.00,NE,40,1.0,5.0,88,0.01,,,2.07,0.000000,,2013-02-11 10:21:00,
2013-02-11 04:31:00,57.0,53.0,-100.00,NE,40,1.0,5.0,88,0.01,,,2.07,0.000000,,2013-02-11 10:31:00,
2013-02-11 04:32:00,55.0,50.0,-100.00,North,6,0.0,9.0,82,0.01,,,2.08,0.000000,,2013-02-11 10:32:00,
2013-02-11 04:52:00,55.0,50.0,-100.00,North,6,0.0,9.0,82,0.01,,,2.08,0.000000,,2013-02-11 10:52:00,
2013-02-11 05:01:00,55.0,50.0,-100.00,North,6,0.0,9.0,82,0.01,,,2.08,0.000000,,2013-02-11 11:01:00,
2013-02-11 05:11:00,55.0,50.0,-100.00,North,6,0.0,9.0,82,0.01,,,2.08,0.000000,,2013-02-11 11:11:00,
2013-02-11 05:22:00,55.0,50.0,-100.00,North,6,0.0,9.0,82,0.01,,,2.08,0.000000,,2013-02-11 11:22:00,
2013-02-11 05:32:00,53.0,47.0,-100.00,ENE,57,3.0,6.0,80,0.00,,,2.08,0.000000,,2013-02-11 11:32:00,
2013-02-11 05:52:00,53.0,47.0,-100.00,ENE,57,3.0,6.0,80,0.00,,,2.08,0.000000,,2013-02-11 11:52:00,
2013-02-11 06:03:00,53.0,47.0,-100.00,ENE,57,3.0,6.0,80,0.00,,,2.08,0.000000,,2013-02-11 12:03:00,
2013-02-11 06:12:00,53.0,47.0,-100.00,ENE,57,3.0,6.0,80,0.00,,,2.08,0.000000,,2013-02-11 12:12:00,
2013-02-11 06:22:00,53.0,47.0,-100.00,ENE,57,3.0,6.0,80,0.00,,,2.08,0.000000,,2013-02-11 12:22:00,
2013-02-11 06:32:00,54.0,47.0,-100.00,NE,53,2.0,6.0,77,0.00,,,-99.99,0.000000,,2013-02-11 12:32:00,
2013-02-11 06:52:00,54.0,47.0,-100.00,NE,53,2.0,6.0,77,0.00,,,-99.99,0.000000,,2013-02-11 12:52:00,
2013-02-11 07:02:00,54.0,47.0,-100.00,NE,53,2.0,6.0,77,0.00,,,-99.99,0.000000,,2013-02-11 13:02:00,
2013-02-11 07:12:00,54.0,47.0,-100.00,NE,53,2.0,6.0,77,0.00,,,-99.99,0.000000,,2013-02-11 13:12:00,
2013-02-11 07:22:00,54.0,47.0,-100.00,NE,53,2.0,6.0,77,0.00,,,-99.99,0.000000,,2013-02-11 13:22:00,
2013-02-11 07:32:00,52.0,48.0,-100.00,ENE,58,4.0,8.0,87,0.04,,,-99.99,2.000000,,2013-02-11 13:32:00,
2013-02-11 07:52:00,52.0,48.0,-100.00,ENE,58,4.0,8.0,87,0.04,,,-99.99,2.000000,,2013-02-11 13:52:00,
2013-02-11 08:02:00,52.0,48.0,-100.00,ENE,58,4.0,8.0,87,0.04,,,-99.99,2.000000,,2013-02-11 14:02:00,
2013-02-11 08:11:00,52.0,48.0,-100.00,ENE,58,4.0,8.0,87,0.04,,,-99.99,2.000000,,2013-02-11 14:11:00,
2013-02-11 08:22:00,52.0,48.0,-100.00,ENE,58,4.0,8.0,87,0.04,,,-99.99,2.000000,,2013-02-11 14:22:00,
2013-02-11 08:32:00,52.0,47.0,-100.00,NE,50,4.0,8.0,84,0.00,,,2.12,23.000000,,2013-02-11 14:32:00,
2013-02-11 08:53:00,52.0,47.0,-100.00,NE,50,4.0,8.0,84,0.00,,,2.12,23.000000,,2013-02-11 14:53:00,
2013-02-11 09:02:00,52.0,47.0,-100.00,NE,50,4.0,8.0,84,0.00,,,2.12,23.000000,,2013-02-11 15:02:00,
2013-02-11 09:11:00,52.0,47.0,-100.00,NE,50,4.0,8.0,84,0.00,,,2.12,23.000000,,2013-02-11 15:11:00,
2013-02-11 09:22:00,52.0,47.0,-100.00,NE,50,4.0,8.0,84,0.00,,,2.12,23.000000,,2013-02-11 15:22:00,
2013-02-11 09:32:00,52.0,48.0,-100.00,ENE,59,6.0,9.0,86,0.02,,,2.11,58.000000,,2013-02-11 15:32:00,
2013-02-11 09:52:00,52.0,48.0,-100.00,ENE,59,6.0,9.0,86,0.02,,,2.11,58.000000,,2013-02-11 15:52:00,
2013-02-11 10:02:00,52.0,48.0,-100.00,ENE,59,6.0,9.0,86,0.02,,,2.11,58.000000,,2013-02-11 16:02:00,
2013-02-11 10:12:00,52.0,48.0,-100.00,ENE,59,6.0,9.0,86,0.02,,,2.11,58.000000,,2013-02-11 16:12:00,
2013-02-11 10:22:00,52.0,48.0,-100.00,ENE,59,6.0,9.0,86,0.02,,,2.11,58.000000,,2013-02-11 16:22:00,
2013-02-11 10:32:00,52.0,49.0,-100.00,East,79,5.0,10.0,89,0.03,,,2.14,48.000000,,2013-02-11 16:32:00,
2013-02-11 10:52:00,52.0,49.0,-100.00,East,79,5.0,10.0,89,0.03,,,2.14,48.000000,,2013-02-11 16:52:00,
2013-02-11 11:02:00,52.0,49.0,-100.00,East,79,5.0,10.0,89,0.03,,,2.14,48.000000,,2013-02-11 17:02:00,
2013-02-11 11:11:00,52.0,49.0,-100.00,East,79,5.0,10.0,89,0.03,,,2.14,48.000000,,2013-02-11 17:11:00,
2013-02-11 11:22:00,52.0,49.0,-100.00,East,79,5.0,10.0,89,0.03,,,2.14,48.000000,,2013-02-11 17:22:00,
2013-02-11 11:32:00,52.0,48.0,-100.00,East,80,7.0,15.0,86,0.03,,,1.82,102.000000,,2013-02-11 17:32:00,
2013-02-11 11:53:00,52.0,48.0,-100.00,East,80,7.0,15.0,86,0.03,,,1.82,102.000000,,2013-02-11 17:53:00,
2013-02-11 12:02:00,52.0,48.0,-100.00,East,80,7.0,15.0,86,0.03,,,1.82,102.000000,,2013-02-11 18:02:00,
2013-02-11 12:11:00,52.0,48.0,-100.00,East,80,7.0,15.0,86,0.03,,,1.82,102.000000,,2013-02-11 18:11:00,
2013-02-11 12:21:00,52.0,48.0,-100.00,East,80,7.0,15.0,86,0.03,,,1.82,102.000000,,2013-02-11 18:21:00,
2013-02-11 12:32:00,51.0,48.0,-100.00,NNE,19,2.0,11.0,90,0.03,,,0.40,52.000000,,2013-02-11 18:32:00,
2013-02-11 12:53:00,51.0,48.0,-100.00,NNE,19,2.0,11.0,90,0.03,,,0.40,52.000000,,2013-02-11 18:53:00,
2013-02-11 13:02:00,51.0,48.0,-100.00,NNE,19,2.0,11.0,90,0.03,,,0.40,52.000000,,2013-02-11 19:02:00,
2013-02-11 13:11:00,51.0,48.0,-100.00,NNE,19,2.0,11.0,90,0.03,,,0.40,52.000000,,2013-02-11 19:11:00,
2013-02-11 13:21:00,51.0,48.0,-100.00,NNE,19,2.0,11.0,90,0.03,,,0.40,52.000000,,2013-02-11 19:21:00,
2013-02-11 13:32:00,51.0,48.0,-100.00,NNW,335,3.0,11.0,90,0.04,,,0.31,66.000000,,2013-02-11 19:32:00,
2013-02-11 14:01:00,51.0,48.0,-100.00,NNW,335,3.0,11.0,90,0.04,,,0.31,66.000000,,2013-02-11 20:01:00,
2013-02-11 14:11:00,51.0,48.0,-100.00,NNW,335,3.0,11.0,90,0.04,,,0.31,66.000000,,2013-02-11 20:11:00,
2013-02-11 14:21:00,51.0,48.0,-100.00,NNW,335,3.0,11.0,90,0.04,,,0.31,66.000000,,2013-02-11 20:21:00,
2013-02-11 14:32:00,51.0,48.0,-100.00,WNW,301,8.0,16.0,91,0.10,,,0.33,34.000000,,2013-02-11 20:32:00,
2013-02-11 14:52:00,51.0,48.0,-100.00,WNW,301,8.0,16.0,91,0.10,,,0.33,34.000000,,2013-02-11 20:52:00,
2013-02-11 15:02:00,51.0,48.0,-100.00,WNW,301,8.0,16.0,91,0.10,,,0.33,34.000000,,2013-02-11 21:02:00,
2013-02-11 15:11:00,51.0,48.0,-100.00,WNW,301,8.0,16.0,91,0.10,,,0.33,34.000000,,2013-02-11 21:11:00,
2013-02-11 15:22:00,51.0,48.0,-100.00,WNW,301,8.0,16.0,91,0.10,,,0.33,34.000000,,2013-02-11 21:22:00,
2013-02-11 15:32:00,52.0,49.0,-100.00,North,351,6.0,10.0,90,0.03,,,0.36,111.000000,,2013-02-11 21:32:00,
2013-02-11 15:52:00,52.0,49.0,-100.00,North,351,6.0,10.0,90,0.03,,,0.36,111.000000,,2013-02-11 21:52:00,
2013-02-11 16:02:00,52.0,49.0,-100.00,North,351,6.0,10.0,90,0.03,,,0.36,111.000000,,2013-02-11 22:02:00,
2013-02-11 16:11:00,52.0,49.0,-100.00,North,351,6.0,10.0,90,0.03,,,0.36,111.000000,,2013-02-11 22:11:00,
2013-02-11 16:22:00,52.0,49.0,-100.00,North,351,6.0,10.0,90,0.03,,,0.36,111.000000,,2013-02-11 22:22:00,
2013-02-11 16:32:00,52.0,49.0,-100.00,ENE,62,5.0,9.0,91,0.07,,,0.43,53.000000,,2013-02-11 22:32:00,
2013-02-11 16:52:00,52.0,49.0,-100.00,ENE,62,5.0,9.0,91,0.07,,,0.43,53.000000,,2013-02-11 22:52:00,
2013-02-11 17:02:00,52.0,49.0,-100.00,ENE,62,5.0,9.0,91,0.07,,,0.43,53.000000,,2013-02-11 23:02:00,
2013-02-11 17:11:00,52.0,49.0,-100.00,ENE,62,5.0,9.0,91,0.07,,,0.43,53.000000,,2013-02-11 23:11:00,
2013-02-11 17:21:00,52.0,49.0,-100.00,ENE,62,5.0,9.0,91,0.07,,,0.43,53.000000,,2013-02-11 23:21:00,
2013-02-11 17:32:00,51.0,48.0,-100.00,NE,51,6.0,13.0,91,0.01,,,0.44,19.000000,,2013-02-11 23:32:00,
2013-02-11 17:52:00,51.0,48.0,-100.00,NE,51,6.0,13.0,91,0.01,,,0.44,19.000000,,2013-02-11 23:52:00,
2013-02-11 18:02:00,51.0,48.0,-100.00,NE,51,6.0,13.0,91,0.01,,,0.44,19.000000,,2013-02-12 00:02:00,
2013-02-11 18:11:00,51.0,48.0,-100.00,NE,51,6.0,13.0,91,0.01,,,0.44,19.000000,,2013-02-12 00:11:00,
2013-02-11 18:22:00,51.0,48.0,-100.00,NE,51,6.0,13.0,91,0.01,,,0.44,19.000000,,2013-02-12 00:22:00,
2013-02-11 18:32:00,50.0,47.0,-100.00,NE,45,6.0,11.0,90,0.01,,,0.45,1.000000,,2013-02-12 00:32:00,
2013-02-11 18:52:00,50.0,47.0,-100.00,NE,45,6.0,11.0,90,0.01,,,0.45,1.000000,,2013-02-12 00:52:00,
2013-02-11 19:02:00,50.0,47.0,-100.00,NE,45,6.0,11.0,90,0.01,,,0.45,1.000000,,2013-02-12 01:02:00,
2013-02-11 19:11:00,50.0,47.0,-100.00,NE,45,6.0,11.0,90,0.01,,,0.45,1.000000,,2013-02-12 01:11:00,
2013-02-11 19:22:00,50.0,47.0,-100.00,NE,45,6.0,11.0,90,0.01,,,0.45,1.000000,,2013-02-12 01:22:00,
2013-02-11 19:52:00,50.0,47.0,-100.00,NE,53,7.0,13.0,90,0.01,,,0.46,0.000000,,2013-02-12 01:52:00,
2013-02-11 20:02:00,50.0,47.0,-100.00,NE,53,7.0,13.0,90,0.01,,,0.46,0.000000,,2013-02-12 02:02:00,
2013-02-11 20:12:00,50.0,47.0,-100.00,NE,53,7.0,13.0,90,0.01,,,0.46,0.000000,,2013-02-12 02:12:00,
2013-02-11 20:22:00,50.0,47.0,-100.00,NE,53,7.0,13.0,90,0.01,,,0.46,0.000000,,2013-02-12 02:22:00,
2013-02-11 20:31:00,50.0,47.0,-100.00,NE,53,7.0,13.0,90,0.01,,,0.46,0.000000,,2013-02-12 02:31:00,
2013-02-11 20:53:00,50.0,47.0,-100.00,NE,56,6.0,12.0,90,0.01,,,0.47,0.000000,,2013-02-12 02:53:00,
2013-02-11 21:02:00,50.0,47.0,-100.00,NE,56,6.0,12.0,90,0.01,,,0.47,0.000000,,2013-02-12 03:02:00,
2013-02-11 21:11:00,50.0,47.0,-100.00,NE,56,6.0,12.0,90,0.01,,,0.47,0.000000,,2013-02-12 03:11:00,
2013-02-11 21:21:00,50.0,47.0,-100.00,NE,56,6.0,12.0,90,0.01,,,0.47,0.000000,,2013-02-12 03:21:00,
2013-02-11 21:31:00,50.0,47.0,-100.00,NE,56,6.0,12.0,90,0.01,,,0.47,0.000000,,2013-02-12 03:31:00,
2013-02-11 21:52:00,50.0,47.0,-100.00,ENE,69,4.0,10.0,90,0.00,,,0.47,0.000000,,2013-02-12 03:52:00,
2013-02-11 22:01:00,50.0,47.0,-100.00,ENE,69,4.0,10.0,90,0.00,,,0.47,0.000000,,2013-02-12 04:01:00,
2013-02-11 22:11:00,50.0,47.0,-100.00,ENE,69,4.0,10.0,90,0.00,,,0.47,0.000000,,2013-02-12 04:11:00,
2013-02-11 22:21:00,50.0,47.0,-100.00,ENE,69,4.0,10.0,90,0.00,,,0.47,0.000000,,2013-02-12 04:21:00,
2013-02-11 22:31:00,50.0,47.0,-100.00,ENE,69,4.0,10.0,90,0.00,,,0.47,0.000000,,2013-02-12 04:31:00,
2013-02-11 22:52:00,50.0,47.0,-100.00,NE,51,5.0,10.0,90,0.20,,,0.67,0.000000,,2013-02-12 04:52:00,
2013-02-11 23:01:00,50.0,47.0,-100.00,NE,51,5.0,10.0,90,0.20,,,0.67,0.000000,,2013-02-12 05:01:00,
2013-02-11 23:11:00,50.0,47.0,-100.00,NE,51,5.0,10.0,90,0.20,,,0.67,0.000000,,2013-02-12 05:11:00,
2013-02-11 23:21:00,50.0,47.0,-100.00,NE,51,5.0,10.0,90,0.20,,,0.67,0.000000,,2013-02-12 05:21:00,
2013-02-11 23:31:00,50.0,47.0,-100.00,NE,51,5.0,10.0,90,0.20,,,0.67,0.000000,,2013-02-12 05:31:00,
2013-02-11 23:32:00,50.0,47.0,-100.00,NNE,32,3.0,10.0,91,0.00,,,0.67,0.000000,,2013-02-12 05:32:00,
2013-02-11 23:52:00,50.0,47.0,-100.00,NNE,32,3.0,10.0,91,0.00,,,0.67,0.000000,,2013-02-12 05:52:00,